This page uses our WeatherBlox Daily Observations layout. Learn more.

Hourly Observations for May 3, 2018

Temp ( °F °C ) Dew Point ( °F °C ) Humidity (%) Winds ( mph kmh ) Pressure ( in mb ) Visibility ( mi km ) Precip ( " mm )
12:15 am 00:15 Clear 68 20 52 11 56 56 SW 3 6 30.06 1018 10 16.09344 0 0
12:35 am 00:35 Clear 70 21 52 11 53 53 Calm 30.06 1018 10 16.09344 0 0
12:55 am 00:55 Clear 72 22 52 11 50 50 S 3 6 30.06 1018 10 16.09344 0 0
1:15 am 01:15 Clear 72 22 52 11 50 50 SSW 5 7 30.06 1018 10 16.09344 0 0
1:35 am 01:35 Clear 66 19 52 11 60 60 W 5 7 30.06 1018 10 16.09344 0 0
1:55 am 01:55 Clear 70 21 52 11 53 53 S 3 6 30.06 1018 10 16.09344 0 0
2:15 am 02:15 Clear 70 21 52 11 53 53 SSW 6 9 30.06 1018 10 16.09344 0 0
2:35 am 02:35 Clear 68 20 52 11 56 56 SSW 3 6 30.06 1018 10 16.09344 0 0
2:55 am 02:55 Clear 68 20 52 11 56 56 S 3 6 30.06 1018 10 16.09344 0 0
3:15 am 03:15 Clear 68 20 52 11 56 56 SSW 3 6 30.06 1018 10 16.09344 0 0
3:35 am 03:35 Clear 66 19 52 11 60 60 Calm 30.09 1019 10 16.09344 0 0
3:55 am 03:55 Clear 64 18 52 11 64 64 Calm 30.09 1019 10 16.09344 0 0
4:15 am 04:15 Clear 63 17 52 11 68 68 WSW 3 6 30.09 1019 10 16.09344 0 0
4:35 am 04:35 Clear 64 18 52 11 64 64 Calm 30.09 1019 10 16.09344 0 0
4:55 am 04:55 Clear 64 18 52 11 64 64 WSW 5 7 30.09 1019 10 16.09344 0 0
5:15 am 05:15 Clear 61 16 54 12 77 77 Calm 30.09 1019 10 16.09344 0 0
5:35 am 05:35 Clear 63 17 54 12 73 73 SSE 3 6 30.09 1019 10 16.09344 0 0
5:55 am 05:55 Clear 61 16 54 12 77 77 WSW 6 9 30.09 1019 10 16.09344 0 0
6:15 am 06:15 Sunny 63 17 54 12 73 73 Calm 30.09 1019 10 16.09344 0 0
6:35 am 06:35 Sunny 63 17 54 12 73 73 Calm 30.12 1020 10 16.09344 0 0
6:55 am 06:55 Sunny 63 17 54 12 73 73 Calm 30.12 1020 10 16.09344 0 0
7:15 am 07:15 Sunny 64 18 54 12 68 68 Calm 30.12 1020 10 16.09344 0 0
7:35 am 07:35 Sunny 66 19 54 12 64 64 SE 6 9 30.12 1020 10 16.09344 0 0
7:55 am 07:55 Sunny 68 20 54 12 60 60 SE 5 7 30.12 1020 10 16.09344 0 0
8:15 am 08:15 Sunny 68 20 55 13 64 64 Calm 30.12 1020 10 16.09344 0 0
8:35 am 08:35 Sunny 72 22 55 13 57 57 Calm 30.12 1020 10 16.09344 0 0
8:55 am 08:55 Sunny 73 23 57 14 57 57 Calm 30.12 1020 10 16.09344 0 0
9:15 am 09:15 Sunny 75 24 57 14 54 54 S 3 6 30.12 1020 10 16.09344 0 0
9:35 am 09:35 Sunny 77 25 57 14 51 51 S 3 6 30.12 1020 10 16.09344 0 0
9:55 am 09:55 Sunny 79 26 59 15 51 51 S 5 7 30.12 1020 10 16.09344 0 0
10:15 am 10:15 Sunny 82 28 59 15 45 45 S 6 9 30.12 1020 10 16.09344 0 0
10:35 am 10:35 Sunny 84 29 59 15 43 43 S 6 9 30.12 1020 10 16.09344 0 0
10:55 am 10:55 Sunny 86 30 59 15 40 40 SSW 8 13 30.09 1019 10 16.09344 0 0
11:15 am 11:15 Sunny 88 31 59 15 38 38 W 10 17 30.09 1019 10 16.09344 0 0
11:35 am 11:35 Sunny 88 31 61 16 40 40 WSW 9 15 30.09 1019 10 16.09344 0 0
11:55 am 11:55 Sunny 88 31 59 15 38 38 S 9 15 30.09 1019 10 16.09344 0 0
12:15 pm 12:15 Sunny 90 32 61 16 38 38 WSW 7 11 30.06 1018 10 16.09344 0 0
12:35 pm 12:35 Sunny 90 32 61 16 38 38 SW 9 15 30.03 1017 10 16.09344 0 0
12:55 pm 12:55 Sunny 90 32 61 16 38 38 SW 9 15 30.03 1017 10 16.09344 0 0
1:15 pm 13:15 Sunny 90 32 61 16 38 38 WSW 10 17 30.03 1017 10 16.09344 0 0
1:35 pm 13:35 Sunny 91 33 61 16 36 36 SW 13 20 30.03 1017 10 16.09344 0 0
1:55 pm 13:55 Sunny 91 33 61 16 36 36 W 9 15 30.03 1017 10 16.09344 0 0
2:15 pm 14:15 Sunny 91 33 59 15 34 34 SSW 12 19 30.03 1017 10 16.09344 0 0
2:35 pm 14:35 Sunny 91 33 61 16 36 36 SW 7 11 30 1016 10 16.09344 0 0
2:55 pm 14:55 Sunny 91 33 61 16 36 36 SW 10 17 30 1016 10 16.09344 0 0
3:15 pm 15:15 Sunny 93 34 61 16 34 34 WSW 13 20 30 1016 10 16.09344 0 0
3:35 pm 15:35 Sunny 91 33 61 16 36 36 S 8 13 29.97 1015 10 16.09344 0 0
3:55 pm 15:55 Sunny 91 33 61 16 36 36 SW 9 15 29.97 1015 10 16.09344 0 0
4:15 pm 16:15 Sunny 91 33 61 16 36 36 WSW 9 15 29.97 1015 10 16.09344 0 0
4:35 pm 16:35 Sunny 93 34 61 16 34 34 SSW 15 24 29.97 1015 10 16.09344 0 0
4:55 pm 16:55 Sunny 91 33 61 16 36 36 SW 14 22 29.94 1014 10 16.09344 0 0
5:15 pm 17:15 Sunny 91 33 61 16 36 36 SW 13 20 29.94 1014 10 16.09344 0 0
5:35 pm 17:35 Sunny 91 33 61 16 36 36 SSW 7 11 29.94 1014 10 16.09344 0 0
5:55 pm 17:55 Sunny 90 32 61 16 38 38 SSW 12 19 29.94 1014 10 16.09344 0 0
6:15 pm 18:15 Sunny 90 32 61 16 38 38 SSW 7 11 29.94 1014 10 16.09344 0 0
6:35 pm 18:35 Sunny 90 32 61 16 38 38 SSW 13 20 29.94 1014 10 16.09344 0 0
6:55 pm 18:55 Sunny 88 31 61 16 40 40 SSW 8 13 29.94 1014 10 16.09344 0 0
7:15 pm 19:15 Sunny 88 31 61 16 40 40 SSW 7 11 29.94 1014 10 16.09344 0 0
7:35 pm 19:35 Sunny 86 30 61 16 43 43 SSW 10 17 30 1016 10 16.09344 0 0
7:55 pm 19:55 Sunny 86 30 61 16 43 43 SSW 9 15 30 1016 10 16.09344 0 0
8:15 pm 20:15 Clear 84 29 61 16 45 45 SSW 8 13 30 1016 10 16.09344 0 0
8:35 pm 20:35 Clear 82 28 61 16 48 48 SSW 9 15 30 1016 10 16.09344 0 0
8:55 pm 20:55 Clear 82 28 61 16 48 48 SSW 7 11 30 1016 10 16.09344 0 0
9:15 pm 21:15 Clear 82 28 61 16 48 48 SSW 6 9 30 1016 10 16.09344 0 0
9:35 pm 21:35 Clear 81 27 61 16 51 51 SSW 7 11 30 1016 10 16.09344 0 0
9:55 pm 21:55 Clear 81 27 61 16 51 51 SW 8 13 30.03 1017 10 16.09344 0 0
10:15 pm 22:15 Clear 81 27 61 16 51 51 SSW 6 9 30.03 1017 10 16.09344 0 0
10:35 pm 22:35 Clear 81 27 61 16 51 51 SSW 8 13 30 1016 10 16.09344 0 0
10:55 pm 22:55 Clear 79 26 61 16 54 54 SW 7 11 30.03 1017 10 16.09344 0 0
11:15 pm 23:15 Partly Cloudy 79 26 61 16 54 54 SW 7 11 30.03 1017 10 16.09344 0 0
11:35 pm 23:35 Partly Cloudy 79 26 61 16 54 54 SW 6 9 30.03 1017 10 16.09344 0 0
11:55 pm 23:55 Partly Cloudy 79 26 61 16 54 54 SW 6 9 30.03 1017 10 16.09344 0 0

Powered by AerisWeather